Homer, AK

11:21 AM AKDT on August 21, 2019 (GMT -0800)
Homer

Weather History for PAHO - July, 2019

Change the Weather History Date:

Monday, July 22, 2019

  Actual Average Record
Temperature  
Mean Temperature 58 °F -  
Max Temperature 66 °F 61 °F 84 °F (2011)
Min Temperature 51 °F 47 °F 34 °F (1959)
Degree Days  
Heating Degree Days 6    
Growing Degree Days 8 (Base 50)    
Moisture  
Dew Point 53 °F    
Average Humidity 80    
Maximum Humidity 96    
Minimum Humidity 63    
Precipitation  
Precipitation 0.00 in - - ()
Sea Level Pressure  
Sea Level Pressure 30.07 in    
Wind  
Wind Speed 5 mph (WNW)    
Max Wind Speed 18 mph    
Max Gust Speed -    
Visibility 9 miles    
Events      
Averages and records for this station are not official NWS values.
T = Trace of Precipitation, MM = Missing Value Source: NWS Daily Summary

Daily Weather History Graph

Daily Weather History Graph

Search for Another Location

Airport or City:

Astronomy

Jul. 22, 2019 Rise Set
Actual Time 5:26 AM AKDT 10:56 PM AKDT
Civil Twilight 4:19 AM AKDT 12:03 AM AKDT
Nautical Twilight 2:44 AM AKDT 1:39 AM AKDT
Astronomical Twilight Sun does not set Sun does not set
Moon 12:46 AM AKDT (7/22) 12:11 PM AKDT (7/22)
Length of Visible Light 19h 44m
Length of Day
17h 29m
Waning Gibbous, 71% of the Moon is Illuminated
Jul 22
Waning Gibbous
Jul 24
Last Quarter
Jul 31
New
Aug 7
First Quarter
Aug 15
Full

Hourly Weather History & Observations

Time (AKDT) Temp. Dew Point Humidity Pressure Visibility Wind Dir Wind Speed Gust Speed Precip Events Conditions
12:53 AM 55.9 °F 54.0 °F 93% 30.12 in 9.0 mi NNE 3.5 mph - N/A   Clear
1:53 AM 54.0 °F 52.0 °F 93% 30.12 in 8.0 mi Calm Calm - N/A   Clear
2:43 AM 51.1 °F 50.0 °F 96% 30.11 in 1.8 mi NNE 3.5 mph - N/A   Clear
2:51 AM 51.8 °F 50.0 °F 94% 30.11 in 4.0 mi NNE 3.5 mph - N/A   Clear
2:53 AM 53.1 °F 51.1 °F 93% 30.11 in 7.0 mi Calm Calm - N/A   Clear
3:53 AM 53.1 °F 51.1 °F 93% 30.10 in 8.0 mi NE 4.6 mph - N/A   Clear
4:53 AM 52.0 °F 50.0 °F 93% 30.10 in 9.0 mi NE 4.6 mph - N/A   Clear
5:53 AM 51.1 °F 48.9 °F 92% 30.09 in 7.0 mi NE 4.6 mph - N/A   Clear
6:53 AM 53.1 °F 51.1 °F 93% 30.09 in 8.0 mi ENE 3.5 mph - N/A   Clear
7:53 AM 55.9 °F 53.1 °F 90% 30.09 in 9.0 mi East 4.6 mph - N/A   Clear
8:53 AM 59.0 °F 54.0 °F 83% 30.09 in 10.0 mi Calm Calm - N/A   Clear
9:53 AM 60.1 °F 54.0 °F 80% 30.09 in 10.0 mi Calm Calm - N/A   Clear
10:53 AM 63.0 °F 54.0 °F 72% 30.08 in 10.0 mi SW 6.9 mph - N/A   Clear
11:53 AM 64.0 °F 54.0 °F 70% 30.08 in 10.0 mi WSW 10.4 mph - N/A   Clear
12:53 PM 64.9 °F 55.9 °F 73% 30.08 in 10.0 mi SW 9.2 mph - N/A   Clear
1:53 PM 64.9 °F 55.0 °F 70% 30.07 in 10.0 mi WSW 13.8 mph - N/A   Clear
2:53 PM 64.9 °F 55.0 °F 70% 30.06 in 10.0 mi WSW 16.1 mph - N/A   Clear
3:53 PM 66.0 °F 55.0 °F 68% 30.05 in 10.0 mi WSW 13.8 mph - N/A   Clear
4:53 PM 64.0 °F 55.0 °F 73% 30.05 in 10.0 mi WSW 18.4 mph - N/A   Clear
5:53 PM 64.9 °F 55.0 °F 70% 30.04 in 10.0 mi WSW 16.1 mph - N/A   Partly Cloudy
6:53 PM 64.0 °F 53.1 °F 67% 30.04 in 10.0 mi WSW 13.8 mph - N/A   Clear
7:53 PM 66.0 °F 54.0 °F 65% 30.03 in 10.0 mi WSW 11.5 mph - N/A   Mostly Cloudy
8:53 PM 64.9 °F 52.0 °F 63% 30.02 in 10.0 mi WSW 11.5 mph - N/A   Overcast
9:53 PM 64.0 °F 51.1 °F 63% 30.02 in 10.0 mi WSW 5.8 mph - N/A   Scattered Clouds
10:53 PM 60.1 °F 53.1 °F 78% 30.02 in 10.0 mi ENE 4.6 mph - N/A   Scattered Clouds
11:53 PM 57.9 °F 54.0 °F 87% 30.01 in 10.0 mi NNE 3.5 mph - N/A   Clear